User: anonymous   Login
Location: Berlin
(38.3226°N, 75.2177°W)
Time: 23:04:06
(UTC+00:00)
Language:

Cosmos 1980 Rocket - Orbit

View from above orbital plane
View from above orbital plane
View from above satellite
View from above satellite

Ground track
Ground track

The orbit data is extracted from the following two-line orbital elements,

1 19650U 88102B   21018.41061086 -.00000117  00000-0 -35257-4 0  9995
2 19650  71.0006 137.8991 0015123 338.0883  21.9591 14.15800752661306
Epoch (UTC): 18 January 2021 09:51:16
Eccentricity: 0.0015123
inclination: 71.0006°
perigee height: 828 km
apogee height: 850 km
right ascension of ascending node: 137.8991°
argument of perigee: 338.0883°
revolutions per day: 14.15800752
mean anomaly at epoch: 21.9591°
orbit number at epoch: 66130

The dashed part of the orbit path shows where the satellite is in the earth's shadow,  

DLR